time_stamp(utc),avg(mph),gust(mph),direction(deg),12m_air_temp(f),sonic_u(cm/s),sonic_v(cm/s),sonic_w(cm/s),pressure,2m_air_temp(f),pyranometer(W/m^2)
"2017-08-02 00:00:21+00",12.7,13.7,,76.9,-245,-497,12,1016.12,76.6,0
"2017-08-02 00:05:21+00",13.8,14.8,,76.8,-290,-526,-10,1016.13,76.5,0
"2017-08-02 00:10:21+00",13.0,15.0,,76.7,-248,-514,7,1016.25,76.4,0
"2017-08-02 00:15:21+00",12.9,14.9,,76.7,-277,-495,7,1016.2,76.3,0
"2017-08-02 00:20:21+00",14.3,16.3,,76.6,-281,-554,-10,1016.19,76.1,0
"2017-08-02 00:25:21+00",14.7,17.7,,76.5,-303,-565,-5,1016.24,76.1,0
"2017-08-02 00:30:21+00",13.0,15.0,,76.5,-296,-495,8,1016.14,76.1,0
"2017-08-02 00:35:21+00",12.6,14.6,,76.4,-278,-477,4,1016.12,76,0
"2017-08-02 00:40:21+00",12.5,14.5,,76.6,-332,-453,-10,1016.21,75.9,0
"2017-08-02 00:45:21+00",13.6,16.6,,76.7,-326,-506,-3,1016.2,76,0
"2017-08-02 00:50:21+00",14.6,16.6,,76.7,-449,-498,3,1016.28,76,0
"2017-08-02 00:55:21+00",13.3,15.3,,76.7,-403,-445,14,1016.3,76,0
"2017-08-02 01:00:21+00",13.0,15.0,,76.7,-346,-472,1,1016.4,76,0
"2017-08-02 01:05:21+00",13.1,15.1,,76.7,-378,-460,7,1016.5,76.1,0
"2017-08-02 01:10:21+00",9.8,13.8,,76.7,-275,-359,16,1016.51,76.1,0
"2017-08-02 01:15:21+00",13.0,15.0,,76.7,-398,-440,5,1016.51,76.1,0
"2017-08-02 01:20:21+00",13.2,16.2,,76.7,-409,-450,22,1016.5,76.2,0
"2017-08-02 01:25:21+00",12.8,14.8,,76.7,-373,-436,10,1016.57,76.2,0
"2017-08-02 01:30:21+00",12.5,14.5,,76.6,-365,-423,-5,1016.69,76.2,0
"2017-08-02 01:35:21+00",11.5,13.5,,76.6,-312,-421,8,1016.63,76.1,0
"2017-08-02 01:40:21+00",9.6,11.6,,76.5,-191,-372,-3,1016.61,76.1,0
"2017-08-02 01:45:21+00",11.0,13.0,,76.4,-304,-396,1,1016.67,75.9,0
"2017-08-02 01:50:21+00",12.3,14.3,,76.3,-313,-451,-7,1016.83,75.8,0
"2017-08-02 01:55:21+00",11.5,13.5,,76.3,-301,-424,20,1016.75,75.7,0
"2017-08-02 02:00:21+00",10.7,12.7,,76.2,-277,-393,-3,1016.79,75.7,0
"2017-08-02 02:05:21+00",10.8,11.8,,76.2,-294,-392,5,1016.83,75.6,0
"2017-08-02 02:10:21+00",9.8,11.8,,76.1,-258,-358,13,1016.82,75.6,0
"2017-08-02 02:15:21+00",9.9,10.9,,76.1,-246,-368,-1,1016.88,75.5,0
"2017-08-02 02:20:21+00",8.4,9.4,,76.1,-159,-330,4,1016.86,75.4,0
"2017-08-02 02:25:21+00",8.5,11.5,,75.9,-140,-333,-2,1016.77,75.3,0
"2017-08-02 02:30:21+00",8.1,10.1,,75.7,-110,-330,-2,1016.69,75.1,0
"2017-08-02 02:35:21+00",10.0,12.0,,75.5,-191,-392,2,1016.61,74.9,0
"2017-08-02 02:40:21+00",9.7,10.7,,75.7,-197,-373,1,1016.61,75,0
"2017-08-02 02:45:21+00",9.5,11.5,,75.6,-205,-363,3,1016.64,74.9,0
"2017-08-02 02:50:21+00",11.8,13.8,,75.7,-225,-461,-3,1016.59,74.9,0
"2017-08-02 02:55:21+00",10.0,11.0,,75.7,-183,-390,-6,1016.6,74.9,0
"2017-08-02 03:00:21+00",10.0,11.0,,75.4,-170,-396,-8,1016.6,74.8,0
"2017-08-02 03:05:21+00",9.6,10.6,,75.4,-191,-372,-9,1016.66,74.7,0
"2017-08-02 03:10:21+00",8.3,10.3,,75.4,-171,-319,0,1016.66,74.7,0
"2017-08-02 03:15:21+00",9.1,10.1,,75.3,-164,-355,-2,1016.76,74.6,0
"2017-08-02 03:20:21+00",8.5,10.5,,75.3,-170,-326,10,1016.74,74.6,0
"2017-08-02 03:25:21+00",8.2,10.2,,75.3,-141,-319,-2,1016.79,74.6,0
"2017-08-02 03:30:21+00",10.0,13.0,,75.2,-142,-406,-9,1016.75,74.5,0
"2017-08-02 03:35:21+00",11.1,13.1,,75.3,-197,-438,-6,1016.84,74.5,0
"2017-08-02 03:40:21+00",11.3,14.3,,75.3,-221,-437,-10,1016.8,74.6,0
"2017-08-02 03:45:21+00",10.8,12.8,,75.3,-206,-419,1,1016.78,74.6,0
"2017-08-02 03:50:21+00",11.1,12.1,,75.3,-223,-423,-7,1016.78,74.7,0
"2017-08-02 03:55:21+00",8.9,9.9,,75.3,-175,-346,-7,1016.77,74.7,0
"2017-08-02 04:00:21+00",8.8,9.8,,75.2,-156,-350,2,1016.74,74.6,0
"2017-08-02 04:05:21+00",8.0,9.0,,75.2,-166,-306,5,1016.76,74.5,0
"2017-08-02 04:10:21+00",10.4,11.4,,75.3,-226,-392,-7,1016.76,74.4,0
"2017-08-02 04:15:21+00",9.0,11.0,,75.4,-218,-337,9,1016.7,74.5,0
"2017-08-02 04:20:21+00",9.6,10.6,,75.4,-204,-363,-1,1016.76,74.5,0
"2017-08-02 04:25:21+00",9.1,11.1,,75.3,-224,-336,1,1016.71,74.5,0
"2017-08-02 04:30:21+00",9.8,11.8,,75.4,-234,-366,5,1016.71,74.4,0
"2017-08-02 04:35:21+00",9.1,10.1,,75.3,-254,-322,-4,1016.67,74.5,0
"2017-08-02 04:40:21+00",9.8,10.8,,75.3,-281,-349,5,1016.69,74.5,0
"2017-08-02 04:45:21+00",9.9,10.9,,75.3,-264,-369,2,1016.67,74.5,0
"2017-08-02 04:50:21+00",9.7,10.7,,75.4,-250,-359,15,1016.61,74.5,0
"2017-08-02 04:55:21+00",10.4,13.4,,75.3,-290,-375,2,1016.62,74.5,0
"2017-08-02 05:00:21+00",11.1,12.1,,75.4,-314,-388,-2,1016.67,74.5,0
"2017-08-02 05:05:21+00",10.7,12.7,,75.4,-316,-377,0,1016.63,74.6,0
"2017-08-02 05:10:21+00",10.9,12.9,,75.4,-314,-396,4,1016.65,74.6,0
"2017-08-02 05:15:21+00",10.9,12.9,,75.5,-318,-368,-5,1016.64,74.6,0
"2017-08-02 05:20:21+00",10.8,12.8,,75.5,-312,-386,12,1016.65,74.6,0
"2017-08-02 05:25:21+00",11.4,13.4,,75.5,-347,-377,5,1016.71,74.6,0
"2017-08-02 05:30:21+00",9.8,11.8,,75.4,-294,-334,-5,1016.68,74.6,0
"2017-08-02 05:35:21+00",8.9,10.9,,75.5,-265,-308,7,1016.59,74.6,0
"2017-08-02 05:40:21+00",9.5,11.5,,75.5,-291,-309,2,1016.57,74.5,0
"2017-08-02 05:45:21+00",9.7,12.7,,75.5,-295,-319,0,1016.53,74.5,0
"2017-08-02 05:50:21+00",10.8,11.8,,75.5,-297,-385,0,1016.49,74.5,0
"2017-08-02 05:55:21+00",8.3,10.3,,75.4,-235,-292,10,1016.45,74.5,0
"2017-08-02 06:00:21+00",9.1,11.1,,75.4,-255,-319,4,1016.42,74.4,0
"2017-08-02 06:05:21+00",9.4,10.4,,75.4,-284,-315,4,1016.39,74.4,0
"2017-08-02 06:10:21+00",8.2,9.2,,75.3,-232,-294,5,1016.51,74.4,0
"2017-08-02 06:15:21+00",7.9,8.9,,75.2,-230,-262,4,1016.43,74.3,0
"2017-08-02 06:20:21+00",8.3,9.3,,75.2,-259,-269,13,1016.44,74.3,0
"2017-08-02 06:25:21+00",9.8,11.8,,75.3,-308,-301,4,1016.52,74.2,0
"2017-08-02 06:30:21+00",9.0,10.0,,75.2,-275,-299,2,1016.59,74.3,0
"2017-08-02 06:35:21+00",9.0,10.0,,75.2,-266,-304,1,1016.55,74.3,0
"2017-08-02 06:40:21+00",7.8,8.8,,75.2,-228,-264,5,1016.51,74.3,0
"2017-08-02 06:45:21+00",7.3,8.3,,75.1,-228,-228,3,1016.56,74.3,0
"2017-08-02 06:50:21+00",9.7,10.7,,75.4,-307,-307,7,1016.57,74.3,0
"2017-08-02 06:55:21+00",9.0,12.0,,75.4,-279,-289,12,1016.64,74.5,0
"2017-08-02 07:00:21+00",9.3,10.3,,75.5,-286,-312,16,1016.71,74.6,0
"2017-08-02 07:05:21+00",10.4,11.4,,75.6,-322,-350,16,1016.55,74.7,0
"2017-08-02 07:10:21+00",9.0,11.0,,75.6,-269,-308,14,1016.58,74.9,0
"2017-08-02 07:15:21+00",8.2,10.2,,75.6,-259,-256,5,1016.53,74.9,0
"2017-08-02 07:20:21+00",8.4,9.4,,75.5,-250,-282,5,1016.45,74.9,0
"2017-08-02 07:25:21+00",9.8,10.8,,75.5,-312,-301,3,1016.41,74.9,0
"2017-08-02 07:30:21+00",9.7,11.7,,75.5,-299,-317,17,1016.55,74.9,0
"2017-08-02 07:35:21+00",10.5,12.5,,75.5,-348,-301,-13,1016.46,74.9,0
"2017-08-02 07:40:21+00",8.8,9.8,,75.5,-304,-232,22,1016.44,74.8,0
"2017-08-02 07:45:21+00",10.1,12.1,,75.5,-349,-268,15,1016.43,74.8,0
"2017-08-02 07:50:21+00",10.7,11.7,,75.5,-364,-291,10,1016.44,74.8,0
"2017-08-02 07:55:21+00",8.7,10.7,,75.5,-281,-265,0,1016.42,74.8,0
"2017-08-02 08:00:21+00",9.8,10.8,,75.4,-319,-297,-1,1016.41,74.7,0
"2017-08-02 08:05:21+00",9.8,10.8,,75.3,-282,-335,0,1016.44,74.6,0
"2017-08-02 08:10:21+00",8.7,10.7,,75.2,-269,-281,2,1016.43,74.5,0
"2017-08-02 08:15:21+00",9.6,11.6,,75.1,-310,-285,6,1016.42,74.5,0
"2017-08-02 08:20:21+00",9.1,10.1,,75.1,-310,-241,11,1016.33,74.4,0
"2017-08-02 08:25:21+00",9.2,11.2,,75.1,-297,-269,8,1016.32,74.3,0
"2017-08-02 08:30:21+00",9.8,10.8,,75,-321,-288,11,1016.32,74.3,0
"2017-08-02 08:35:21+00",9.3,11.3,,74.9,-297,-275,-3,1016.32,74.2,0
"2017-08-02 08:40:21+00",7.9,9.9,,74.8,-231,-265,6,1016.28,74.2,0
"2017-08-02 08:45:21+00",7.8,8.8,,74.7,-248,-240,1,1016.3,74.1,0
"2017-08-02 08:50:21+00",8.0,10.0,,74.7,-246,-254,6,1016.32,74,0
"2017-08-02 08:55:21+00",6.6,7.6,,74.6,-205,-212,18,1016.26,73.9,0
"2017-08-02 09:00:21+00",7.9,8.9,,74.6,-254,-235,9,1016.33,73.8,0
"2017-08-02 09:05:21+00",8.4,9.4,,74.6,-260,-268,12,1016.39,73.8,0
"2017-08-02 09:10:21+00",9.1,11.1,,74.5,-307,-239,-1,1016.41,73.8,0
"2017-08-02 09:15:21+00",7.1,8.1,,74.5,-257,-177,12,1016.57,73.8,0
"2017-08-02 09:20:21+00",8.7,9.7,,74.5,-326,-202,8,1016.56,73.7,0
"2017-08-02 09:25:21+00",10.7,11.7,,74.6,-385,-268,18,1016.58,73.6,0
"2017-08-02 09:30:21+00",10.3,12.3,,74.6,-360,-265,17,1016.74,73.7,0
"2017-08-02 09:35:21+00",10.9,11.9,,74.6,-351,-316,9,1016.8,73.7,0
"2017-08-02 09:40:21+00",8.7,10.7,,74.6,-286,-257,10,1016.77,73.7,0
"2017-08-02 09:45:21+00",10.2,12.2,,74.7,-323,-310,3,1016.85,73.8,0
"2017-08-02 09:50:21+00",8.3,10.3,,74.6,-265,-252,5,1016.92,73.8,0
"2017-08-02 09:55:21+00",8.5,9.5,,74.6,-268,-259,-1,1016.88,73.8,0
"2017-08-02 10:00:21+00",8.6,9.6,,74.6,-277,-249,3,1016.83,73.8,0
"2017-08-02 10:05:21+00",7.8,9.8,,74.5,-264,-208,9,1016.83,73.7,0
"2017-08-02 10:10:21+00",8.1,10.1,,74.5,-288,-210,14,1016.96,73.7,0
"2017-08-02 10:15:21+00",8.6,9.6,,74.5,-295,-225,10,1016.94,73.7,0
"2017-08-02 10:20:21+00",7.9,8.9,,74.5,-252,-229,10,1016.98,73.7,0
"2017-08-02 10:25:21+00",8.9,9.9,,74.5,-293,-247,2,1017.03,73.7,0
"2017-08-02 10:30:21+00",7.6,8.6,,74.5,-245,-228,13,1017.06,73.7,0
"2017-08-02 10:35:21+00",7.8,9.8,,74.5,-246,-240,10,1017.09,73.8,0
"2017-08-02 10:40:21+00",6.1,7.1,,74.6,-206,-213,-13,1017.05,73.8,0
"2017-08-02 10:45:21+00",5.9,6.9,,74.6,-157,-239,-15,1016.95,73.8,0.1
"2017-08-02 10:50:21+00",5.2,6.2,,74.7,-192,-200,-20,1016.94,73.9,0
"2017-08-02 10:55:21+00",4.8,5.8,,74.7,-176,-193,-14,1016.81,74,0.2
"2017-08-02 11:00:21+00",5.7,6.7,,74.7,-166,-203,-6,1016.92,74.2,2.1
"2017-08-02 11:05:21+00",4.9,5.9,,74.7,-54,-199,0,1017.04,74.4,23.6
"2017-08-02 11:10:21+00",5.4,6.4,,74.7,-61,-222,-8,1017.06,74.7,16.6
"2017-08-02 11:15:21+00",6.6,7.6,,74.7,-112,-257,6,1017.01,75,34.4
"2017-08-02 11:20:21+00",8.0,9.0,,74.8,-162,-306,6,1017.15,75.1,36.1
"2017-08-02 11:25:21+00",5.9,6.9,,74.9,-127,-223,5,1017.16,75.3,65.5
"2017-08-02 11:30:21+00",5.0,6.0,,75.1,-102,-187,10,1017.09,76,92.1
"2017-08-02 11:35:21+00",6.2,7.2,,75.6,-193,-195,17,1017.13,76.8,101.1
"2017-08-02 11:40:21+00",6.2,8.2,,75.7,-224,-148,-9,1017.15,77.4,37.4
"2017-08-02 11:45:21+00",6.7,7.7,,75.8,-226,-231,-17,1017.32,77.6,18.2
"2017-08-02 11:50:21+00",6.6,7.6,,75.7,-106,-264,-32,1017.26,77.1,6.9
"2017-08-02 11:55:21+00",4.6,5.6,,75.7,-146,-145,-2,1017.26,76.8,11.2
"2017-08-02 12:00:21+00",7.2,8.2,,75.8,-245,-185,5,1017.33,76.8,25.3
"2017-08-02 12:05:21+00",4.8,5.8,,75.9,-175,-114,28,1017.27,76.9,44.2
"2017-08-02 12:10:21+00",6.8,8.8,,76,-175,-244,6,1017.46,77.1,67.5
"2017-08-02 12:15:21+00",7.5,9.5,,76.1,-199,-270,10,1017.55,77.2,138
"2017-08-02 12:20:21+00",7.4,8.4,,76.2,-231,-230,1,1017.43,77.8,177.2
"2017-08-02 12:25:21+00",8.4,11.4,,76.5,-188,-317,11,1017.53,78.8,218.2
"2017-08-02 12:30:21+00",6.4,8.4,,76.6,-175,-226,25,1017.43,79.1,63.6
"2017-08-02 12:35:21+00",7.8,8.8,,76.6,-234,-258,2,1017.5,79.1,51.4
"2017-08-02 12:40:21+00",6.8,7.8,,76.6,-208,-206,16,1017.56,79,56.2
"2017-08-02 12:45:21+00",7.5,8.5,,76.5,-247,-213,8,1017.49,78.8,66.7
"2017-08-02 12:50:21+00",7.7,8.7,,76.6,-269,-192,10,1017.47,78.8,73.6
"2017-08-02 12:55:21+00",8.0,9.0,,76.7,-234,-274,-3,1017.62,78.8,115.1
"2017-08-02 13:00:21+00",7.1,8.1,,77,-263,-175,28,1017.47,78.9,148
"2017-08-02 13:05:21+00",7.4,8.4,,77.1,-268,-174,7,1017.45,79.6,171.9
"2017-08-02 13:10:21+00",7.4,8.4,,77.2,-236,-224,-4,1017.46,80,164.1
"2017-08-02 13:15:21+00",6.2,7.2,,77.3,-206,-185,46,1017.4,80.5,139.2
"2017-08-02 13:20:21+00",6.6,6.6,,77.2,-202,-216,34,1017.43,80.8,127.8
"2017-08-02 13:25:21+00",8.0,10.0,,77.3,-266,-228,9,1017.49,80.8,159.1
"2017-08-02 13:30:21+00",6.9,7.9,,77.3,-242,-184,39,1017.5,81.4,166.6
"2017-08-02 13:35:21+00",7.8,8.8,,77.5,-201,-277,-13,1017.58,81,167.1
"2017-08-02 13:40:21+00",7.1,7.1,,77.7,-197,-234,-3,1017.72,80.9,178.3
"2017-08-02 13:45:21+00",6.6,7.6,,77.9,-205,-193,-7,1017.74,81.3,213.5
"2017-08-02 13:50:21+00",7.9,8.9,,77.8,-244,-240,1,1017.71,81.4,111
"2017-08-02 13:55:21+00",6.7,7.7,,77.9,-248,-165,33,1017.71,81.2,143.3
"2017-08-02 14:00:21+00",5.3,8.3,,78.3,-76,-206,22,1017.73,81.6,314.4
"2017-08-02 14:05:21+00",9.1,12.1,,78.6,39,-383,-8,1017.76,80.8,338.8
"2017-08-02 14:10:21+00",8.9,9.9,,78.3,-120,-354,-21,1017.67,80.6,174.8
"2017-08-02 14:15:21+00",8.4,9.4,,77.8,47,-354,-15,1017.69,79.7,167.8
"2017-08-02 14:20:21+00",6.3,7.3,,77.8,-97,-245,-10,1017.75,79.6,216
"2017-08-02 14:25:21+00",9.1,12.1,,78,48,-378,-10,1017.73,79.7,303.5
"2017-08-02 14:30:21+00",8.2,12.2,,78,21,-333,-2,1017.75,79.6,325.1
"2017-08-02 14:35:21+00",6.3,8.3,,78.8,-62,-243,51,1017.71,80.4,411.1
"2017-08-02 14:40:21+00",9.7,12.7,,78.9,29,-420,-7,1017.67,80.9,397.6
"2017-08-02 14:45:21+00",10.1,13.1,,78.8,19,-427,6,1017.65,80.8,240.9
"2017-08-02 14:50:21+00",8.7,12.7,,78.3,-41,-357,20,1017.7,80,517.6
"2017-08-02 14:55:21+00",10.6,12.6,,78.9,-115,-437,-1,1017.69,80.7,370.2
"2017-08-02 15:00:21+00",10.1,13.1,,78.8,-110,-412,6,1017.77,80.4,244.1
"2017-08-02 15:05:21+00",8.2,11.2,,79,-90,-322,47,1017.75,80.6,480.5
"2017-08-02 15:10:21+00",11.7,14.7,,78.8,18,-478,-14,1017.73,80.5,193.3
"2017-08-02 15:15:21+00",10.9,13.9,,78.4,24,-459,-16,1017.75,79.9,339.6
"2017-08-02 15:20:21+00",10.0,13.0,,77.5,-14,-415,-2,1017.82,78.9,250.1
"2017-08-02 15:25:21+00",10.3,13.3,,77.8,6,-442,-8,1017.78,79.1,342.8
"2017-08-02 15:30:21+00",10.6,12.6,,77.7,-1,-443,-31,1017.8,79.3,377
"2017-08-02 15:35:21+00",6.9,8.9,,78.3,-19,-282,13,1017.79,79.9,447.8
"2017-08-02 15:40:21+00",9.4,12.4,,78.8,46,-399,3,1017.76,80.7,548.7
"2017-08-02 15:45:21+00",11.2,14.2,,78.4,-24,-470,-34,1017.65,80.3,337.9
"2017-08-02 15:50:21+00",9.9,12.9,,78.1,15,-423,-13,1017.67,79.8,505.8
"2017-08-02 15:55:21+00",8.3,12.3,,79,-99,-337,20,1017.62,80.7,448.1
"2017-08-02 16:00:21+00",9.6,11.6,,79.4,-80,-390,-2,1017.66,81.3,532.8
"2017-08-02 16:05:21+00",8.0,11.0,,79.8,-79,-316,41,1017.59,81.7,167.2
"2017-08-02 16:10:21+00",9.0,12.0,,79.4,-74,-363,8,1017.55,81.1,545.5
"2017-08-02 16:15:21+00",17.1,20.1,,79,116,-729,-36,1017.44,81.4,571.9
"2017-08-02 16:20:21+00",17.2,18.2,,77.8,68,-734,-43,1017.37,80.1,230.9
"2017-08-02 16:25:21+00",13.5,16.5,,78,-21,-572,-45,1017.46,79.9,342.9
"2017-08-02 16:30:21+00",12.5,14.5,,78.2,-47,-520,-40,1017.45,80.1,518.5
"2017-08-02 16:35:21+00",9.5,12.5,,78.9,-44,-396,-6,1017.31,80.9,517.4
"2017-08-02 16:40:21+00",12.7,16.7,,78.8,39,-532,-17,1017.33,80.9,492.2
"2017-08-02 16:45:21+00",10.2,15.2,,79,-37,-415,19,1017.25,81.1,540.7
"2017-08-02 16:50:21+00",12.4,14.4,,79.5,34,-526,-26,1017.14,81.4,526.2
"2017-08-02 16:55:21+00",14.9,16.9,,79.6,66,-644,-43,1017.03,81.7,540.1
"2017-08-02 17:00:21+00",13.6,16.6,,79.4,17,-573,-35,1016.97,81.4,442.3
"2017-08-02 17:05:21+00",10.7,15.7,,79.1,-48,-455,16,1016.95,81.3,536.5
"2017-08-02 17:10:21+00",12.3,17.3,,79.4,-86,-505,-5,1017.06,81.5,536.9
"2017-08-02 17:15:21+00",9.7,16.7,,79.8,-17,-404,5,1016.97,81.7,533.7
"2017-08-02 17:20:21+00",13.1,16.1,,78.6,-41,-547,-5,1016.92,80.7,532.2
"2017-08-02 17:25:21+00",14.1,18.1,,78.4,84,-589,11,1016.82,80.9,533.2
"2017-08-02 17:30:21+00",15.7,19.7,,77.8,77,-672,-29,1016.75,80.3,531.9
"2017-08-02 17:35:21+00",14.1,18.1,,78.2,34,-598,-13,1016.74,80.2,531.9
"2017-08-02 17:40:21+00",14.8,18.8,,78.6,-52,-628,-34,1016.7,80.5,531.4
"2017-08-02 17:45:21+00",11.3,16.3,,79.3,-10,-470,-11,1016.66,81.1,525.4
"2017-08-02 17:50:21+00",10.7,14.7,,79.8,1,-454,-18,1016.7,81.5,525.1
"2017-08-02 17:55:21+00",12.6,18.6,,79.7,-53,-526,4,1016.59,81.5,522.6
"2017-08-02 18:00:21+00",14.8,19.8,,79.3,-90,-629,-38,1016.53,81.3,516.8
"2017-08-02 18:05:21+00",11.4,19.4,,79.2,-34,-481,11,1016.5,80.9,512.8
"2017-08-02 18:10:21+00",12.7,16.7,,79.4,-73,-527,-12,1016.39,81.2,511
"2017-08-02 18:15:21+00",13.2,17.2,,79.8,-110,-564,-15,1016.45,81.5,506.1
"2017-08-02 18:20:21+00",15.1,20.1,,80.3,-168,-627,-13,1016.4,81.8,504.8
"2017-08-02 18:25:21+00",12.6,19.6,,80.5,-161,-529,34,1016.56,82.2,496.6
"2017-08-02 18:30:21+00",15.7,18.7,,80.3,-199,-652,-5,1016.46,82.5,492
"2017-08-02 18:35:21+00",13.8,16.8,,80.3,-153,-578,-8,1016.48,82.3,485.1
"2017-08-02 18:40:21+00",17.7,21.7,,80.2,-201,-732,-17,1016.56,82.2,482.5
"2017-08-02 18:45:21+00",17.2,22.2,,80.2,-8,-736,-44,1016.38,82.2,474.8
"2017-08-02 18:50:21+00",12.3,16.3,,80.2,-170,-503,23,1016.42,82.1,469.7
"2017-08-02 18:55:21+00",10.9,14.9,,80.7,-81,-448,32,1016.25,82.6,466.3
"2017-08-02 19:00:21+00",11.7,15.7,,80.3,-70,-491,1,1016.22,82.3,459.2
"2017-08-02 19:05:21+00",14.1,19.1,,80.1,-87,-595,2,1016.12,81.8,451
"2017-08-02 19:10:21+00",14.8,21.8,,80,-74,-623,-8,1016.07,81.7,448
"2017-08-02 19:15:21+00",14.1,18.1,,79.7,-61,-593,-9,1015.91,81.4,441.9
"2017-08-02 19:20:21+00",13.3,19.3,,79.8,-118,-554,31,1016,81.3,434.4
"2017-08-02 19:25:21+00",16.2,23.2,,79.8,-173,-667,6,1015.98,81.5,428.7
"2017-08-02 19:30:21+00",11.5,15.5,,80,-128,-456,16,1016.03,81.7,417.2
"2017-08-02 19:35:21+00",16.7,22.7,,79.9,-192,-682,13,1016.01,81.7,413.1
"2017-08-02 19:40:21+00",16.5,20.5,,79.4,-7,-698,-26,1016.01,81.2,403.6
"2017-08-02 19:45:21+00",11.8,15.8,,79.1,-38,-500,-14,1015.97,80.8,395.1
"2017-08-02 19:50:21+00",10.9,16.9,,79.2,-43,-462,31,1016.05,80.8,387.8
"2017-08-02 19:55:21+00",12.2,17.2,,79.2,-80,-508,-6,1016.09,80.8,382.7
"2017-08-02 20:00:21+00",13.1,17.1,,79.6,-96,-559,-16,1016.11,80.8,374.8
"2017-08-02 20:05:21+00",12.8,16.8,,79.3,-143,-526,-3,1016.13,80.8,366.5
"2017-08-02 20:10:21+00",12.7,17.7,,79.6,-84,-521,-10,1016.14,81.2,357.3
"2017-08-02 20:15:21+00",12.2,17.2,,79.9,-166,-504,4,1016.11,81.5,347.9
"2017-08-02 20:20:21+00",17.9,19.9,,79.7,-179,-749,-30,1016.28,81.5,340.6
"2017-08-02 20:25:21+00",9.3,11.3,,79.7,-105,-377,37,1016.38,81.4,324
"2017-08-02 20:30:21+00",12.0,15.0,,79.4,-48,-501,-15,1016.3,81.3,312.2
"2017-08-02 20:35:21+00",13.0,16.0,,79.3,-45,-546,-21,1016.11,80.9,306.2
"2017-08-02 20:40:21+00",11.9,16.9,,79.2,-126,-512,7,1016.19,80.8,298.9
"2017-08-02 20:45:21+00",11.6,15.6,,78.8,-31,-481,-2,1016.1,80.5,292
"2017-08-02 20:50:21+00",11.9,16.9,,78.7,-30,-498,-23,1016.22,80.2,283.1
"2017-08-02 20:55:21+00",11.6,14.6,,78.9,-123,-495,-12,1016.32,80.6,292
"2017-08-02 21:00:21+00",11.9,14.9,,78.9,-122,-500,-10,1016.28,80.7,188.2
"2017-08-02 21:05:21+00",14.1,18.1,,78.8,-148,-576,-22,1016.32,80.5,214
"2017-08-02 21:10:21+00",13.5,19.5,,78.6,-123,-560,-15,1016.36,79.9,134.9
"2017-08-02 21:15:21+00",10.5,14.5,,78.5,-43,-445,-16,1016.34,79.5,44.1
"2017-08-02 21:20:21+00",7.9,10.9,,78.3,-45,-335,16,1016.42,79,68.7
"2017-08-02 21:25:21+00",12.3,16.3,,77.9,-6,-530,-27,1016.46,78.5,39.1
"2017-08-02 21:30:21+00",11.3,15.3,,77.5,-86,-467,-8,1016.46,78.1,45.4
"2017-08-02 21:35:21+00",9.3,14.3,,77.4,-45,-375,25,1016.47,78,39.4
"2017-08-02 21:40:21+00",9.7,13.7,,77.5,-77,-412,19,1016.47,78,24.2
"2017-08-02 21:45:21+00",10.4,13.4,,77.4,-63,-435,1,1016.62,77.8,10.7
"2017-08-02 21:50:21+00",12.4,15.4,,77,-120,-513,-34,1016.6,77.4,1
"2017-08-02 21:55:21+00",11.4,16.4,,76.8,-167,-456,10,1016.81,77.2,1
"2017-08-02 22:00:21+00",13.5,16.5,,76.9,-212,-532,-19,1016.81,77.2,0.3
"2017-08-02 22:05:21+00",12.0,14.0,,76.9,-199,-479,17,1017.1,77.1,0
"2017-08-02 22:10:21+00",15.2,17.2,,76.9,-262,-595,-20,1017.21,77,0
"2017-08-02 22:15:21+00",15.6,16.6,,76.9,-250,-615,-24,1017.16,77,0
"2017-08-02 22:20:21+00",21.9,35.9,,77.3,-936,-124,66,1017.98,77.2,0
"2017-08-02 22:25:21+00",42.6,49.6,,73.1,-1398,1330,131,1017.76,74.4,0
"2017-08-02 22:30:21+00",28.3,34.3,,72.5,-961,854,115,1018.17,73.5,0
"2017-08-02 22:35:21+00",27.2,30.2,,72.4,-873,865,111,1018.21,73.1,0
"2017-08-02 22:40:21+00",27.2,31.2,,70.9,-805,913,81,1018.24,72.3,0
"2017-08-02 22:45:21+00",21.9,25.9,,69.8,-445,852,70,1018.2,71.3,0
"2017-08-02 22:50:21+00",20.1,23.1,,69.9,-450,776,62,1018.26,71,0
"2017-08-02 22:55:21+00",20.7,22.7,,70.1,-426,818,38,1018.35,70.9,0
"2017-08-02 23:00:21+00",19.5,22.5,,69.7,-303,810,17,1018.29,70.7,0
"2017-08-02 23:05:21+00",16.4,18.4,,69.8,-254,679,40,1018.25,70.6,0
"2017-08-02 23:10:21+00",17.4,19.4,,69.8,-297,713,30,1018.2,70.5,0
"2017-08-02 23:15:21+00",16.3,18.3,,69.9,-299,653,36,1018.05,70.5,0
"2017-08-02 23:20:21+00",14.3,17.3,,69.9,-315,557,48,1018.04,70.6,0
"2017-08-02 23:25:21+00",14.0,16.0,,69.5,-328,521,31,1018.01,70.3,0
"2017-08-02 23:30:21+00",11.5,14.5,,69.6,-157,465,39,1017.93,70.3,0
"2017-08-02 23:35:21+00",12.6,14.6,,69.7,-46,551,-5,1017.7,70.1,0
"2017-08-02 23:40:21+00",11.4,12.4,,69.7,-51,501,-5,1017.7,70.1,0
"2017-08-02 23:45:21+00",9.2,11.2,,70,-19,399,20,1017.61,70.1,0
"2017-08-02 23:50:21+00",6.0,7.0,,70.2,-4,251,23,1017.64,70.3,0
"2017-08-02 23:55:21+00",6.6,7.6,,70.2,10,279,10,1017.55,70.3,0
